STARLINK-34342 (64271 NORAD) Tracking and Keplerian Element Data

This shows tracking and keplerian element data for the satellite.

Feedback or suggestion? Click here.




ElementValue
Catalog64271
NameSTARLINK-34342
Epoch Orbit3157
Epoch Day353.40850684
Epoch Year2025
RAAN129.6708
Inclination53.1577
Eccentricity0.0001506
Argument of Perigee102.7379
Mean Anonmoly257.379
Mean Motion15.30201957
Decay Rate0.00016377
L11 64271U 25120R 25353.40850684 .00016377 00000+0 56382-3 0 9993
L22 64271 53.1577 129.6708 0001506 102.7379 257.3790 15.30201957 31576



Live tracking and technical data element details for STARLINK-34342 (NORAD 64271). STARLINK-34342 can be tracked NOW for your location showing map with azimuth and elevation plus other details from your city location.







IsCatalogInMostPopularTable: catalog: 64271, numindb: 5
Update: records affected: 1



GetName: 64271 STARLINK-34342

Hit Count: updated at: Sun, 08 Feb 2026 16:59:03 GMT